Time,TemperatureF,DewpointF,PressureIn,WindDirection,WindDirectionDegrees,WindSpeedMPH,WindSpeedGustMPH,Humidity,HourlyPrecipIn,Conditions,Clouds,dailyrainin,SoftwareType,DateUTC
2013-02-08 00:01:00,23.5,-14.9,29.09,SSW,208,0.0,3.1,17,0.00,,,0.00,VWS V13.01,2013-02-08 06:01:00,
2013-02-08 00:06:00,23.4,-15.0,29.09,SSE,153,4.0,4.0,17,0.00,,,0.00,VWS V13.01,2013-02-08 06:06:00,
2013-02-08 00:11:00,23.4,-15.0,29.09,SE,132,3.1,3.1,17,0.00,,,0.00,VWS V13.01,2013-02-08 06:11:00,
2013-02-08 00:16:00,23.4,-15.0,29.09,ESE,109,2.7,2.7,17,0.00,,,0.00,VWS V13.01,2013-02-08 06:16:00,
2013-02-08 00:21:00,23.2,-15.2,29.09,ENE,61,0.0,0.0,17,0.00,,,0.00,VWS V13.01,2013-02-08 06:21:00,
2013-02-08 00:26:00,23.2,-15.2,29.09,NE,43,2.2,3.1,17,0.00,,,0.00,VWS V13.01,2013-02-08 06:26:00,
2013-02-08 00:31:00,23.2,-15.2,29.09,SE,137,0.0,3.1,17,0.00,,,0.00,VWS V13.01,2013-02-08 06:31:00,
2013-02-08 00:36:00,23.2,-15.2,29.09,SE,146,0.0,0.0,17,0.00,,,0.00,VWS V13.01,2013-02-08 06:36:00,
2013-02-08 00:41:00,23.0,-15.3,29.12,SE,142,0.0,2.7,17,0.00,,,0.00,VWS V13.01,2013-02-08 06:41:00,
2013-02-08 00:46:00,23.0,-15.3,29.12,ESE,102,2.2,2.2,17,0.00,,,0.00,VWS V13.01,2013-02-08 06:46:00,
2013-02-08 00:51:00,22.8,-15.4,29.12,East,82,2.2,2.2,17,0.00,,,0.00,VWS V13.01,2013-02-08 06:51:00,
2013-02-08 00:56:00,22.8,-15.4,29.12,ESE,109,3.6,3.6,17,0.00,,,0.00,VWS V13.01,2013-02-08 06:56:00,
2013-02-08 01:01:00,22.6,-15.6,29.12,SE,136,0.0,0.0,17,0.00,,,0.00,VWS V13.01,2013-02-08 07:01:00,
2013-02-08 01:06:00,22.5,-15.8,29.12,ESE,122,0.0,0.0,17,0.00,,,0.00,VWS V13.01,2013-02-08 07:06:00,
2013-02-08 01:11:00,22.3,-15.9,29.12,ESE,104,3.1,3.1,17,0.00,,,0.00,VWS V13.01,2013-02-08 07:11:00,
2013-02-08 01:16:00,22.3,-15.9,29.12,East,101,2.2,2.7,17,0.00,,,0.00,VWS V13.01,2013-02-08 07:16:00,
2013-02-08 01:21:00,22.1,-16.0,29.12,SE,125,0.0,0.0,17,0.00,,,0.00,VWS V13.01,2013-02-08 07:21:00,
2013-02-08 01:26:00,22.1,-16.0,29.09,East,92,3.1,3.1,17,0.00,,,0.00,VWS V13.01,2013-02-08 07:26:00,
2013-02-08 01:31:00,21.9,-16.2,29.09,ENE,77,4.0,4.0,17,0.00,,,0.00,VWS V13.01,2013-02-08 07:31:00,
2013-02-08 01:36:00,21.9,-16.2,29.09,SSE,155,0.0,0.0,17,0.00,,,0.00,VWS V13.01,2013-02-08 07:36:00,
2013-02-08 01:41:00,21.9,-16.2,29.12,SSE,154,2.2,3.1,17,0.00,,,0.00,VWS V13.01,2013-02-08 07:41:00,
2013-02-08 01:46:00,21.7,-16.4,29.12,SE,131,0.0,0.0,17,0.00,,,0.00,VWS V13.01,2013-02-08 07:46:00,
2013-02-08 01:51:00,21.7,-16.4,29.12,SE,126,2.2,2.2,17,0.00,,,0.00,VWS V13.01,2013-02-08 07:51:00,
2013-02-08 01:56:00,21.7,-16.4,29.12,ESE,111,0.0,0.0,17,0.00,,,0.00,VWS V13.01,2013-02-08 07:56:00,
2013-02-08 02:01:00,21.7,-16.4,29.12,South,173,0.0,2.7,17,0.00,,,0.00,VWS V13.01,2013-02-08 08:01:00,
2013-02-08 02:06:00,21.7,-16.4,29.12,South,173,4.0,4.0,17,0.00,,,0.00,VWS V13.01,2013-02-08 08:06:00,
2013-02-08 02:11:00,21.7,-16.4,29.12,South,187,0.0,0.0,17,0.00,,,0.00,VWS V13.01,2013-02-08 08:11:00,
2013-02-08 02:16:00,21.7,-16.4,29.12,South,181,0.0,3.1,17,0.00,,,0.00,VWS V13.01,2013-02-08 08:16:00,
2013-02-08 02:21:00,21.6,-16.5,29.12,South,171,0.0,0.0,17,0.00,,,0.00,VWS V13.01,2013-02-08 08:21:00,
2013-02-08 02:26:00,21.6,-16.5,29.12,SE,137,3.1,3.1,17,0.00,,,0.00,VWS V13.01,2013-02-08 08:26:00,
2013-02-08 02:31:00,21.6,-16.5,29.12,SSE,162,0.0,0.0,17,0.00,,,0.00,VWS V13.01,2013-02-08 08:31:00,
2013-02-08 02:36:00,21.4,-16.6,29.12,SSE,162,0.0,0.0,17,0.00,,,0.00,VWS V13.01,2013-02-08 08:36:00,
2013-02-08 02:41:00,21.4,-16.6,29.12,SSE,150,0.0,0.0,17,0.00,,,0.00,VWS V13.01,2013-02-08 08:41:00,
2013-02-08 02:46:00,21.4,-16.6,29.12,South,169,0.0,0.0,17,0.00,,,0.00,VWS V13.01,2013-02-08 08:46:00,
2013-02-08 02:51:00,21.4,-16.6,29.12,SSE,153,0.0,0.0,17,0.00,,,0.00,VWS V13.01,2013-02-08 08:51:00,
2013-02-08 02:56:00,21.4,-16.6,29.12,SSW,196,0.0,0.0,17,0.00,,,0.00,VWS V13.01,2013-02-08 08:56:00,
2013-02-08 03:01:00,21.4,-16.6,29.12,SE,135,0.0,0.0,17,0.00,,,0.00,VWS V13.01,2013-02-08 09:01:00,
2013-02-08 03:06:00,21.2,-16.8,29.12,SSW,193,0.0,0.0,17,0.00,,,0.00,VWS V13.01,2013-02-08 09:06:00,
2013-02-08 03:11:00,21.4,-16.6,29.12,South,189,0.0,0.0,17,0.00,,,0.00,VWS V13.01,2013-02-08 09:11:00,
2013-02-08 03:16:00,21.4,-16.6,29.12,South,189,0.0,0.0,17,0.00,,,0.00,VWS V13.01,2013-02-08 09:16:00,
2013-02-08 03:21:00,21.2,-16.8,29.12,South,184,0.0,0.0,17,0.00,,,0.00,VWS V13.01,2013-02-08 09:21:00,
2013-02-08 03:26:00,21.2,-16.8,29.12,SE,146,0.0,0.0,17,0.00,,,0.00,VWS V13.01,2013-02-08 09:26:00,
2013-02-08 03:31:00,21.2,-16.8,29.12,SE,146,0.0,0.0,17,0.00,,,0.00,VWS V13.01,2013-02-08 09:31:00,
2013-02-08 03:36:00,21.2,-16.8,29.12,SE,146,0.0,0.0,17,0.00,,,0.00,VWS V13.01,2013-02-08 09:36:00,
2013-02-08 03:41:00,21.0,-16.9,29.12,SSE,155,0.0,0.0,17,0.00,,,0.00,VWS V13.01,2013-02-08 09:41:00,
2013-02-08 03:46:00,20.3,-17.5,29.12,SSE,156,0.0,0.0,17,0.00,,,0.00,VWS V13.01,2013-02-08 09:46:00,
2013-02-08 03:51:00,19.0,-17.5,29.12,SSE,156,0.0,0.0,18,0.00,,,0.00,VWS V13.01,2013-02-08 09:51:00,
2013-02-08 03:56:00,18.3,-18.1,29.12,SSE,154,0.0,0.0,18,0.00,,,0.00,VWS V13.01,2013-02-08 09:56:00,
2013-02-08 04:01:00,19.0,-11.0,29.12,SSW,200,2.7,4.0,25,0.00,,,0.00,VWS V13.01,2013-02-08 10:01:00,
2013-02-08 04:06:00,18.7,-5.6,29.12,SSW,196,3.1,3.6,33,0.00,,,0.00,VWS V13.01,2013-02-08 10:06:00,
2013-02-08 04:11:00,18.5,-5.8,29.12,SSW,194,3.1,4.0,33,0.00,,,0.00,VWS V13.01,2013-02-08 10:11:00,
2013-02-08 04:16:00,18.0,-11.9,29.12,South,179,0.0,0.0,25,0.00,,,0.00,VWS V13.01,2013-02-08 10:16:00,
2013-02-08 04:21:00,17.2,-14.2,29.12,South,177,0.0,0.0,23,0.00,,,0.00,VWS V13.01,2013-02-08 10:21:00,
2013-02-08 04:26:00,16.3,-15.0,29.12,South,176,0.0,0.0,23,0.00,,,0.00,VWS V13.01,2013-02-08 10:26:00,
2013-02-08 04:31:00,15.4,-14.9,29.12,SSE,164,0.0,0.0,24,0.00,,,0.00,VWS V13.01,2013-02-08 10:31:00,
2013-02-08 04:36:00,14.9,-13.8,29.12,SSE,163,0.0,0.0,26,0.00,,,0.00,VWS V13.01,2013-02-08 10:36:00,
2013-02-08 04:41:00,14.2,-14.4,29.15,SSE,163,0.0,0.0,26,0.00,,,0.00,VWS V13.01,2013-02-08 10:41:00,
2013-02-08 04:46:00,13.8,-14.0,29.15,SSE,163,0.0,0.0,27,0.00,,,0.00,VWS V13.01,2013-02-08 10:46:00,
2013-02-08 04:51:00,13.8,-14.0,29.15,SSE,163,0.0,0.0,27,0.00,,,0.00,VWS V13.01,2013-02-08 10:51:00,
2013-02-08 04:56:00,14.2,-14.4,29.15,SSE,163,0.0,0.0,26,0.00,,,0.00,VWS V13.01,2013-02-08 10:56:00,
2013-02-08 05:01:00,14.2,-12.2,29.15,SSE,164,0.0,0.0,29,0.00,,,0.00,VWS V13.01,2013-02-08 11:01:00,
2013-02-08 05:06:00,13.5,-12.9,29.15,SSE,163,0.0,0.0,29,0.00,,,0.00,VWS V13.01,2013-02-08 11:06:00,
2013-02-08 05:11:00,13.1,-13.2,29.15,SSE,163,0.0,0.0,29,0.00,,,0.00,VWS V13.01,2013-02-08 11:11:00,
2013-02-08 05:16:00,13.5,-12.9,29.15,SSE,163,0.0,0.0,29,0.00,,,0.00,VWS V13.01,2013-02-08 11:16:00,
2013-02-08 05:21:00,13.5,-12.9,29.15,SSE,164,0.0,0.0,29,0.00,,,0.00,VWS V13.01,2013-02-08 11:21:00,
2013-02-08 05:26:00,13.6,-12.7,29.15,SSE,163,0.0,0.0,29,0.00,,,0.00,VWS V13.01,2013-02-08 11:26:00,
2013-02-08 05:31:00,13.6,-12.7,29.15,SSE,164,0.0,0.0,29,0.00,,,0.00,VWS V13.01,2013-02-08 11:31:00,
2013-02-08 05:36:00,13.6,-12.7,29.15,SSE,163,0.0,0.0,29,0.00,,,0.00,VWS V13.01,2013-02-08 11:36:00,
2013-02-08 05:41:00,12.9,-13.3,29.15,SSE,164,0.0,0.0,29,0.00,,,0.00,VWS V13.01,2013-02-08 11:41:00,
2013-02-08 05:46:00,12.9,-13.3,29.15,SSE,163,0.0,0.0,29,0.00,,,0.00,VWS V13.01,2013-02-08 11:46:00,
2013-02-08 05:51:00,12.7,-13.5,29.15,SSE,163,0.0,0.0,29,0.00,,,0.00,VWS V13.01,2013-02-08 11:51:00,
2013-02-08 05:56:00,12.4,-13.8,29.18,SSE,163,0.0,0.0,29,0.00,,,0.00,VWS V13.01,2013-02-08 11:56:00,
2013-02-08 06:01:00,12.4,-13.8,29.18,SSE,151,0.0,0.0,29,0.00,,,0.00,VWS V13.01,2013-02-08 12:01:00,
2013-02-08 06:06:00,12.6,-13.6,29.18,SSE,148,0.0,0.0,29,0.00,,,0.00,VWS V13.01,2013-02-08 12:06:00,
2013-02-08 06:11:00,12.0,-14.1,29.18,SSE,148,0.0,0.0,29,0.00,,,0.00,VWS V13.01,2013-02-08 12:11:00,
2013-02-08 06:16:00,11.8,-14.3,29.18,SSE,148,0.0,0.0,29,0.00,,,0.00,VWS V13.01,2013-02-08 12:16:00,
2013-02-08 06:21:00,11.5,-14.6,29.18,SSE,148,0.0,0.0,29,0.00,,,0.00,VWS V13.01,2013-02-08 12:21:00,
2013-02-08 06:26:00,12.2,-14.0,29.18,SE,139,0.0,0.0,29,0.00,,,0.00,VWS V13.01,2013-02-08 12:26:00,
2013-02-08 06:31:00,11.8,-14.3,29.18,SE,137,0.0,0.0,29,0.00,,,0.00,VWS V13.01,2013-02-08 12:31:00,
2013-02-08 06:36:00,11.7,-14.4,29.18,SE,141,0.0,0.0,29,0.00,,,0.00,VWS V13.01,2013-02-08 12:36:00,
2013-02-08 06:41:00,11.7,-14.4,29.18,ESE,119,0.0,0.0,29,0.00,,,0.00,VWS V13.01,2013-02-08 12:41:00,
2013-02-08 06:46:00,11.3,-14.8,29.18,ESE,119,0.0,0.0,29,0.00,,,0.00,VWS V13.01,2013-02-08 12:46:00,
2013-02-08 06:51:00,11.1,-14.9,29.18,ESE,119,0.0,0.0,29,0.00,,,0.00,VWS V13.01,2013-02-08 12:51:00,
2013-02-08 06:56:00,12.9,-13.3,29.18,South,179,2.7,4.0,29,0.00,,,0.00,VWS V13.01,2013-02-08 12:56:00,
2013-02-08 07:01:00,12.4,-13.8,29.18,South,174,0.0,0.0,29,0.00,,,0.00,VWS V13.01,2013-02-08 13:01:00,
2013-02-08 07:06:00,12.6,-13.6,29.18,South,178,0.0,2.7,29,0.00,,,0.00,VWS V13.01,2013-02-08 13:06:00,
2013-02-08 07:11:00,12.6,-13.6,29.18,SSE,161,0.0,0.0,29,0.00,,,0.00,VWS V13.01,2013-02-08 13:11:00,
2013-02-08 07:16:00,12.0,-14.1,29.18,SSE,161,0.0,0.0,29,0.00,,,0.00,VWS V13.01,2013-02-08 13:16:00,
2013-02-08 07:21:00,11.7,-14.4,29.18,SSE,161,0.0,0.0,29,0.00,,,0.00,VWS V13.01,2013-02-08 13:21:00,
2013-02-08 07:26:00,11.8,-14.3,29.18,SSE,168,0.0,0.0,29,0.00,,,0.00,VWS V13.01,2013-02-08 13:26:00,
2013-02-08 07:31:00,11.8,-14.3,29.18,South,171,0.0,0.0,29,0.00,,,0.00,VWS V13.01,2013-02-08 13:31:00,
2013-02-08 07:36:00,12.0,-14.1,29.18,SSE,163,2.7,2.7,29,0.00,,,0.00,VWS V13.01,2013-02-08 13:36:00,
2013-02-08 07:41:00,12.0,-14.1,29.18,SSW,205,0.0,0.0,29,0.00,,,0.00,VWS V13.01,2013-02-08 13:41:00,
2013-02-08 07:46:00,12.9,-13.3,29.18,South,187,0.0,0.0,29,0.00,,,0.00,VWS V13.01,2013-02-08 13:46:00,
2013-02-08 07:51:00,14.0,-10.4,29.18,SSW,208,0.0,0.0,32,0.00,,,0.00,VWS V13.01,2013-02-08 13:51:00,
2013-02-08 07:56:00,13.8,-9.4,29.18,SW,225,2.7,2.7,34,0.00,,,0.00,VWS V13.01,2013-02-08 13:56:00,
2013-02-08 08:01:00,14.9,-10.3,29.18,SSW,199,2.2,2.7,31,0.00,,,0.00,VWS V13.01,2013-02-08 14:01:00,
2013-02-08 08:06:00,14.7,-11.8,29.18,SSW,195,3.1,5.4,29,0.00,,,0.00,VWS V13.01,2013-02-08 14:06:00,
2013-02-08 08:11:00,16.0,-8.0,29.18,SSW,195,3.6,3.6,33,0.00,,,0.00,VWS V13.01,2013-02-08 14:11:00,
2013-02-08 08:16:00,15.6,-13.1,29.18,SSW,206,2.7,4.0,26,0.00,,,0.00,VWS V13.01,2013-02-08 14:16:00,
2013-02-08 08:21:00,15.3,-15.1,29.18,South,182,2.7,2.7,24,0.00,,,0.00,VWS V13.01,2013-02-08 14:21:00,
2013-02-08 08:26:00,15.8,-10.8,29.18,SW,220,2.7,2.7,29,0.00,,,0.00,VWS V13.01,2013-02-08 14:26:00,
2013-02-08 08:31:00,16.5,-6.9,29.18,SSW,203,2.7,2.7,34,0.00,,,0.00,VWS V13.01,2013-02-08 14:31:00,
2013-02-08 08:36:00,17.4,-11.6,29.18,SW,221,3.1,4.0,26,0.00,,,0.00,VWS V13.01,2013-02-08 14:36:00,
2013-02-08 08:41:00,19.2,-15.3,29.18,SW,230,0.0,2.2,20,0.00,,,0.00,VWS V13.01,2013-02-08 14:41:00,
2013-02-08 08:46:00,20.8,-17.1,29.18,SW,217,2.7,3.1,17,0.00,,,0.00,VWS V13.01,2013-02-08 14:46:00,
2013-02-08 08:51:00,21.9,-16.2,29.18,SSW,207,0.0,0.0,17,0.00,,,0.00,VWS V13.01,2013-02-08 14:51:00,
2013-02-08 08:56:00,23.2,-15.2,29.18,WSW,241,0.0,0.0,17,0.00,,,0.00,VWS V13.01,2013-02-08 14:56:00,
2013-02-08 09:01:00,22.6,-15.6,29.18,SW,231,2.7,3.6,17,0.00,,,0.00,VWS V13.01,2013-02-08 15:01:00,
2013-02-08 09:06:00,24.4,-14.1,29.18,WSW,249,0.0,0.0,17,0.00,,,0.00,VWS V13.01,2013-02-08 15:06:00,
2013-02-08 09:11:00,24.8,-13.8,29.18,SW,225,0.0,3.1,17,0.00,,,0.00,VWS V13.01,2013-02-08 15:11:00,
2013-02-08 09:16:00,25.3,-14.6,29.18,WSW,244,4.0,4.0,16,0.00,,,0.00,VWS V13.01,2013-02-08 15:16:00,
2013-02-08 09:21:00,24.8,-13.8,29.18,WSW,241,2.7,2.7,17,0.00,,,0.00,VWS V13.01,2013-02-08 15:21:00,
2013-02-08 09:26:00,24.4,-14.1,29.18,WSW,240,3.6,5.4,17,0.00,,,0.00,VWS V13.01,2013-02-08 15:26:00,
2013-02-08 09:31:00,22.8,-15.4,29.18,WSW,249,2.2,3.1,17,0.00,,,0.00,VWS V13.01,2013-02-08 15:31:00,
2013-02-08 09:36:00,24.1,-14.4,29.18,SW,230,4.9,5.4,17,0.00,,,0.00,VWS V13.01,2013-02-08 15:36:00,
2013-02-08 09:41:00,20.7,-17.2,29.18,WSW,244,3.6,4.0,17,0.00,,,0.00,VWS V13.01,2013-02-08 15:41:00,
2013-02-08 09:46:00,20.8,-17.1,29.18,SW,216,3.6,4.0,17,0.00,,,0.00,VWS V13.01,2013-02-08 15:46:00,
2013-02-08 09:51:00,22.6,-15.6,29.18,SW,233,4.0,4.0,17,0.00,,,0.00,VWS V13.01,2013-02-08 15:51:00,
2013-02-08 09:56:00,22.8,-15.4,29.18,SW,235,2.7,2.7,17,0.00,,,0.00,VWS V13.01,2013-02-08 15:56:00,
2013-02-08 10:01:00,26.2,-13.8,29.18,WSW,237,3.6,3.6,16,0.00,,,0.00,VWS V13.01,2013-02-08 16:01:00,
2013-02-08 10:06:00,24.4,-14.1,29.18,WSW,243,3.1,3.1,17,0.00,,,0.00,VWS V13.01,2013-02-08 16:06:00,
2013-02-08 10:11:00,23.7,-14.7,29.18,West,269,4.0,4.0,17,0.00,,,0.00,VWS V13.01,2013-02-08 16:11:00,
2013-02-08 10:16:00,23.2,-15.2,29.18,West,267,5.4,5.4,17,0.00,,,0.00,VWS V13.01,2013-02-08 16:16:00,
2013-02-08 10:21:00,25.7,-14.3,29.18,West,264,3.6,3.6,16,0.00,,,0.00,VWS V13.01,2013-02-08 16:21:00,
2013-02-08 10:26:00,23.7,-14.7,29.18,SW,231,3.6,4.0,17,0.00,,,0.00,VWS V13.01,2013-02-08 16:26:00,
2013-02-08 10:31:00,23.9,-14.6,29.18,SW,232,3.6,4.0,17,0.00,,,0.00,VWS V13.01,2013-02-08 16:31:00,
2013-02-08 10:36:00,23.4,-15.0,29.18,West,279,3.1,6.3,17,0.00,,,0.00,VWS V13.01,2013-02-08 16:36:00,
2013-02-08 10:41:00,24.3,-14.3,29.18,SW,225,3.6,3.6,17,0.00,,,0.00,VWS V13.01,2013-02-08 16:41:00,
2013-02-08 10:46:00,24.3,-14.3,29.18,West,279,2.7,5.4,17,0.00,,,0.00,VWS V13.01,2013-02-08 16:46:00,
2013-02-08 10:51:00,25.0,-14.9,29.18,West,270,2.7,3.6,16,0.00,,,0.00,VWS V13.01,2013-02-08 16:51:00,
2013-02-08 10:56:00,25.2,-14.7,29.18,West,270,3.1,5.4,16,0.00,,,0.00,VWS V13.01,2013-02-08 16:56:00,
2013-02-08 11:01:00,24.6,-14.0,29.18,WSW,257,5.8,5.8,17,0.00,,,0.00,VWS V13.01,2013-02-08 17:01:00,
2013-02-08 11:06:00,23.5,-14.9,29.18,West,265,6.3,7.6,17,0.00,,,0.00,VWS V13.01,2013-02-08 17:06:00,
2013-02-08 11:11:00,24.4,-14.1,29.18,West,275,6.3,6.3,17,0.00,,,0.00,VWS V13.01,2013-02-08 17:11:00,
2013-02-08 11:16:00,25.3,-14.6,29.18,West,275,3.1,4.0,16,0.00,,,0.00,VWS V13.01,2013-02-08 17:16:00,
2013-02-08 11:21:00,26.8,-13.4,29.18,WSW,258,2.2,4.9,16,0.00,,,0.00,VWS V13.01,2013-02-08 17:21:00,
2013-02-08 11:26:00,25.3,-14.6,29.18,West,277,5.8,5.8,16,0.00,,,0.00,VWS V13.01,2013-02-08 17:26:00,
2013-02-08 11:31:00,24.6,-14.0,29.18,WNW,288,5.8,6.3,17,0.00,,,0.00,VWS V13.01,2013-02-08 17:31:00,
2013-02-08 11:36:00,24.1,-14.4,29.18,West,277,5.8,8.1,17,0.00,,,0.00,VWS V13.01,2013-02-08 17:36:00,
2013-02-08 11:41:00,24.4,-14.1,29.18,WNW,302,8.7,8.7,17,0.00,,,0.00,VWS V13.01,2013-02-08 17:41:00,
2013-02-08 11:46:00,25.2,-14.7,29.18,WNW,294,5.4,5.4,16,0.00,,,0.00,VWS V13.01,2013-02-08 17:46:00,
2013-02-08 11:51:00,25.2,-14.7,29.18,SW,232,3.1,7.2,16,0.00,,,0.00,VWS V13.01,2013-02-08 17:51:00,
2013-02-08 11:56:00,25.0,-14.9,29.18,West,275,4.0,7.6,16,0.00,,,0.00,VWS V13.01,2013-02-08 17:56:00,
2013-02-08 12:01:00,24.6,-14.0,29.18,WNW,290,8.3,8.3,17,0.00,,,0.00,VWS V13.01,2013-02-08 18:01:00,
2013-02-08 12:06:00,25.0,-14.9,29.18,WNW,289,6.7,6.7,16,0.00,,,0.00,VWS V13.01,2013-02-08 18:06:00,
2013-02-08 12:11:00,25.0,-14.9,29.18,West,277,6.3,7.6,16,0.00,,,0.00,VWS V13.01,2013-02-08 18:11:00,
2013-02-08 12:16:00,25.3,-14.6,29.18,West,269,5.8,6.3,16,0.00,,,0.00,VWS V13.01,2013-02-08 18:16:00,
2013-02-08 12:21:00,27.0,-13.2,29.18,West,273,2.7,5.4,16,0.00,,,0.00,VWS V13.01,2013-02-08 18:21:00,
2013-02-08 12:26:00,25.0,-14.9,29.18,West,277,5.8,7.6,16,0.00,,,0.00,VWS V13.01,2013-02-08 18:26:00,
2013-02-08 12:31:00,27.7,-12.6,29.18,NW,321,5.8,6.3,16,0.00,,,0.00,VWS V13.01,2013-02-08 18:31:00,
2013-02-08 12:36:00,25.9,-14.1,29.18,NW,316,5.4,5.4,16,0.00,,,0.00,VWS V13.01,2013-02-08 18:36:00,
2013-02-08 12:41:00,26.2,-13.8,29.18,NW,316,5.4,7.6,16,0.00,,,0.00,VWS V13.01,2013-02-08 18:41:00,
2013-02-08 12:46:00,25.9,-14.1,29.18,NW,308,4.9,5.4,16,0.00,,,0.00,VWS V13.01,2013-02-08 18:46:00,
2013-02-08 12:51:00,25.7,-14.3,29.18,NW,322,6.3,8.1,16,0.00,,,0.00,VWS V13.01,2013-02-08 18:51:00,
2013-02-08 12:56:00,26.6,-13.5,29.18,WNW,303,5.4,6.3,16,0.00,,,0.00,VWS V13.01,2013-02-08 18:56:00,
2013-02-08 13:01:00,25.0,-14.9,29.18,WNW,289,5.4,8.1,16,0.00,,,0.00,VWS V13.01,2013-02-08 19:01:00,
2013-02-08 13:06:00,24.8,-13.8,29.18,WNW,291,5.4,5.4,17,0.00,,,0.00,VWS V13.01,2013-02-08 19:06:00,
2013-02-08 13:11:00,25.7,-14.3,29.18,NW,305,4.9,4.9,16,0.00,,,0.00,VWS V13.01,2013-02-08 19:11:00,
2013-02-08 13:16:00,24.8,-13.8,29.18,West,276,5.8,5.8,17,0.00,,,0.00,VWS V13.01,2013-02-08 19:16:00,
2013-02-08 13:21:00,24.8,-13.8,29.18,WNW,296,6.3,8.1,17,0.00,,,0.00,VWS V13.01,2013-02-08 19:21:00,
2013-02-08 13:26:00,24.6,-14.0,29.15,WSW,244,4.9,8.3,17,0.00,,,0.00,VWS V13.01,2013-02-08 19:26:00,
2013-02-08 13:32:00,25.3,-14.6,29.15,West,271,5.4,6.3,16,0.00,,,0.00,VWS V13.01,2013-02-08 19:32:00,
2013-02-08 13:37:00,26.6,-13.5,29.15,West,275,4.0,4.0,16,0.00,,,0.00,VWS V13.01,2013-02-08 19:37:00,
2013-02-08 13:42:00,25.0,-14.9,29.15,WNW,293,7.2,8.7,16,0.00,,,0.00,VWS V13.01,2013-02-08 19:42:00,
2013-02-08 13:47:00,25.3,-14.6,29.15,West,275,4.0,5.4,16,0.00,,,0.00,VWS V13.01,2013-02-08 19:47:00,
2013-02-08 13:52:00,25.2,-14.7,29.15,NW,304,5.8,8.1,16,0.00,,,0.00,VWS V13.01,2013-02-08 19:52:00,
2013-02-08 13:57:00,24.4,-14.1,29.15,WSW,256,6.3,7.2,17,0.00,,,0.00,VWS V13.01,2013-02-08 19:57:00,
2013-02-08 14:02:00,25.3,-14.6,29.15,WNW,301,5.4,7.6,16,0.00,,,0.00,VWS V13.01,2013-02-08 20:02:00,
2013-02-08 14:07:00,25.5,-14.4,29.15,WNW,288,6.3,8.7,16,0.00,,,0.00,VWS V13.01,2013-02-08 20:07:00,
2013-02-08 14:12:00,25.3,-14.6,29.15,West,279,8.1,8.1,16,0.00,,,0.00,VWS V13.01,2013-02-08 20:12:00,
2013-02-08 14:17:00,26.1,-14.0,29.15,WNW,301,8.1,8.1,16,0.00,,,0.00,VWS V13.01,2013-02-08 20:17:00,
2013-02-08 14:22:00,25.0,-14.9,29.15,West,276,7.6,7.6,16,0.00,,,0.00,VWS V13.01,2013-02-08 20:22:00,
2013-02-08 14:27:00,25.5,-14.4,29.12,WNW,303,5.4,8.7,16,0.00,,,0.00,VWS V13.01,2013-02-08 20:27:00,
2013-02-08 14:32:00,26.4,-13.7,29.12,NW,317,10.5,10.5,16,0.00,,,0.00,VWS V13.01,2013-02-08 20:32:00,
2013-02-08 14:37:00,27.0,-13.2,29.12,NW,321,10.1,10.1,16,0.00,,,0.00,VWS V13.01,2013-02-08 20:37:00,
2013-02-08 14:42:00,26.1,-14.0,29.12,WNW,303,6.3,8.7,16,0.00,,,0.00,VWS V13.01,2013-02-08 20:42:00,
2013-02-08 14:47:00,25.9,-14.1,29.12,NW,317,6.7,8.7,16,0.00,,,0.00,VWS V13.01,2013-02-08 20:47:00,
2013-02-08 14:52:00,25.0,-14.9,29.12,NW,326,5.8,8.3,16,0.00,,,0.00,VWS V13.01,2013-02-08 20:52:00,
2013-02-08 14:57:00,24.4,-14.1,29.12,WNW,300,5.4,8.3,17,0.00,,,0.00,VWS V13.01,2013-02-08 20:57:00,
2013-02-08 15:02:00,23.4,-15.0,29.12,NW,313,5.8,5.8,17,0.00,,,0.00,VWS V13.01,2013-02-08 21:02:00,
2013-02-08 15:07:00,23.2,-15.2,29.12,NW,313,5.4,6.3,17,0.00,,,0.00,VWS V13.01,2013-02-08 21:07:00,
2013-02-08 15:12:00,23.7,-14.7,29.12,NW,320,4.9,5.8,17,0.00,,,0.00,VWS V13.01,2013-02-08 21:12:00,
2013-02-08 15:17:00,23.5,-14.9,29.12,NW,321,5.8,5.8,17,0.00,,,0.00,VWS V13.01,2013-02-08 21:17:00,
2013-02-08 15:22:00,23.2,-15.2,29.12,NW,316,5.8,6.3,17,0.00,,,0.00,VWS V13.01,2013-02-08 21:22:00,
2013-02-08 15:27:00,22.8,-15.4,29.12,WNW,291,5.4,5.8,17,0.00,,,0.00,VWS V13.01,2013-02-08 21:27:00,
2013-02-08 15:32:00,22.6,-15.6,29.12,WNW,282,8.3,8.3,17,0.00,,,0.00,VWS V13.01,2013-02-08 21:32:00,
2013-02-08 15:37:00,22.5,-15.8,29.12,NW,311,5.4,5.8,17,0.00,,,0.00,VWS V13.01,2013-02-08 21:37:00,
2013-02-08 15:42:00,22.3,-15.9,29.12,NW,316,4.9,4.9,17,0.00,,,0.00,VWS V13.01,2013-02-08 21:42:00,
2013-02-08 15:47:00,21.9,-16.2,29.12,WNW,285,6.3,6.3,17,0.00,,,0.00,VWS V13.01,2013-02-08 21:47:00,
2013-02-08 15:52:00,21.9,-16.2,29.12,WNW,291,5.8,5.8,17,0.00,,,0.00,VWS V13.01,2013-02-08 21:52:00,
2013-02-08 15:57:00,22.3,-15.9,29.12,WNW,296,4.0,4.0,17,0.00,,,0.00,VWS V13.01,2013-02-08 21:57:00,
2013-02-08 16:02:00,22.1,-16.0,29.12,NW,304,7.6,7.6,17,0.00,,,0.00,VWS V13.01,2013-02-08 22:02:00,
2013-02-08 16:07:00,21.9,-16.2,29.12,West,280,4.0,4.0,17,0.00,,,0.00,VWS V13.01,2013-02-08 22:07:00,
2013-02-08 16:12:00,21.9,-16.2,29.12,West,277,3.6,3.6,17,0.00,,,0.00,VWS V13.01,2013-02-08 22:12:00,
2013-02-08 16:17:00,21.9,-16.2,29.12,WNW,302,5.8,8.3,17,0.00,,,0.00,VWS V13.01,2013-02-08 22:17:00,
2013-02-08 16:22:00,21.9,-16.2,29.12,NW,319,5.4,7.6,17,0.00,,,0.00,VWS V13.01,2013-02-08 22:22:00,
2013-02-08 16:27:00,22.3,-15.9,29.12,WNW,297,5.8,8.3,17,0.00,,,0.00,VWS V13.01,2013-02-08 22:27:00,
2013-02-08 16:32:00,21.9,-16.2,29.12,West,271,4.5,5.4,17,0.00,,,0.00,VWS V13.01,2013-02-08 22:32:00,
2013-02-08 16:37:00,21.9,-16.2,29.12,West,277,4.9,6.3,17,0.00,,,0.00,VWS V13.01,2013-02-08 22:37:00,
2013-02-08 16:42:00,22.1,-16.0,29.12,WNW,282,7.6,8.3,17,0.00,,,0.00,VWS V13.01,2013-02-08 22:42:00,
2013-02-08 16:47:00,22.6,-15.6,29.12,West,274,5.8,6.3,17,0.00,,,0.00,VWS V13.01,2013-02-08 22:47:00,
2013-02-08 16:52:00,22.6,-15.6,29.12,WNW,290,5.8,7.6,17,0.00,,,0.00,VWS V13.01,2013-02-08 22:52:00,
2013-02-08 16:57:00,22.5,-15.8,29.09,WNW,288,7.2,8.1,17,0.00,,,0.00,VWS V13.01,2013-02-08 22:57:00,
2013-02-08 17:02:00,22.3,-15.9,29.09,NW,318,7.6,8.3,17,0.00,,,0.00,VWS V13.01,2013-02-08 23:02:00,
2013-02-08 17:07:00,21.9,-16.2,29.09,WNW,286,4.5,5.8,17,0.00,,,0.00,VWS V13.01,2013-02-08 23:07:00,
2013-02-08 17:12:00,21.6,-16.5,29.09,NW,314,6.3,7.6,17,0.00,,,0.00,VWS V13.01,2013-02-08 23:12:00,
2013-02-08 17:17:00,21.4,-16.6,29.09,WNW,288,8.1,8.1,17,0.00,,,0.00,VWS V13.01,2013-02-08 23:17:00,
2013-02-08 17:22:00,21.4,-16.6,29.09,WNW,301,5.4,6.3,17,0.00,,,0.00,VWS V13.01,2013-02-08 23:22:00,
2013-02-08 17:27:00,21.2,-16.8,29.09,WNW,303,5.4,7.6,17,0.00,,,0.00,VWS V13.01,2013-02-08 23:27:00,
2013-02-08 17:32:00,20.8,-17.1,29.09,NW,316,5.4,6.3,17,0.00,,,0.00,VWS V13.01,2013-02-08 23:32:00,
2013-02-08 17:37:00,20.3,-17.5,29.09,WNW,284,4.0,4.0,17,0.00,,,0.00,VWS V13.01,2013-02-08 23:37:00,
2013-02-08 17:42:00,19.9,-17.8,29.09,West,279,3.1,3.1,17,0.00,,,0.00,VWS V13.01,2013-02-08 23:42:00,
2013-02-08 17:47:00,20.3,-17.5,29.09,WNW,290,5.4,6.3,17,0.00,,,0.00,VWS V13.01,2013-02-08 23:47:00,
2013-02-08 17:52:00,20.3,-17.5,29.09,WNW,283,4.0,7.6,17,0.00,,,0.00,VWS V13.01,2013-02-08 23:52:00,
2013-02-08 17:57:00,19.9,-17.8,29.09,West,276,2.7,4.0,17,0.00,,,0.00,VWS V13.01,2013-02-08 23:57:00,
2013-02-08 18:02:00,19.9,-17.8,29.09,WNW,285,4.9,4.9,17,0.00,,,0.00,VWS V13.01,2013-02-09 00:02:00,
2013-02-08 18:07:00,19.8,-18.0,29.09,West,277,6.3,7.6,17,0.00,,,0.00,VWS V13.01,2013-02-09 00:07:00,
2013-02-08 18:12:00,19.4,-17.2,29.09,WNW,284,5.4,5.4,18,0.00,,,0.00,VWS V13.01,2013-02-09 00:12:00,
2013-02-08 18:17:00,19.0,-17.5,29.09,West,281,4.0,4.0,18,0.00,,,0.00,VWS V13.01,2013-02-09 00:17:00,
2013-02-08 18:22:00,18.7,-17.8,29.09,WNW,297,4.0,4.0,18,0.00,,,0.00,VWS V13.01,2013-02-09 00:22:00,
2013-02-08 18:27:00,18.7,-17.8,29.09,West,273,4.9,4.9,18,0.00,,,0.00,VWS V13.01,2013-02-09 00:27:00,
2013-02-08 18:32:00,19.2,-17.3,29.09,WNW,288,4.9,5.8,18,0.00,,,0.00,VWS V13.01,2013-02-09 00:32:00,
2013-02-08 18:37:00,18.5,-17.9,29.09,WNW,284,3.6,3.6,18,0.00,,,0.00,VWS V13.01,2013-02-09 00:37:00,
2013-02-08 18:42:00,18.9,-17.6,29.09,WNW,287,3.6,4.9,18,0.00,,,0.00,VWS V13.01,2013-02-09 00:42:00,
2013-02-08 18:47:00,18.5,-17.9,29.09,West,272,4.9,5.8,18,0.00,,,0.00,VWS V13.01,2013-02-09 00:47:00,
2013-02-08 18:52:00,18.9,-17.6,29.09,WNW,290,6.3,6.3,18,0.00,,,0.00,VWS V13.01,2013-02-09 00:52:00,
2013-02-08 18:57:00,19.0,-17.5,29.09,West,278,5.8,5.8,18,0.00,,,0.00,VWS V13.01,2013-02-09 00:57:00,
2013-02-08 19:02:00,19.0,-17.5,29.09,West,267,3.1,5.8,18,0.00,,,0.00,VWS V13.01,2013-02-09 01:02:00,
2013-02-08 19:07:00,19.2,-17.3,29.09,WNW,287,5.4,6.3,18,0.00,,,0.00,VWS V13.01,2013-02-09 01:07:00,
2013-02-08 19:12:00,19.4,-17.2,29.09,West,272,5.8,5.8,18,0.00,,,0.00,VWS V13.01,2013-02-09 01:12:00,
2013-02-08 19:17:00,19.9,-17.8,29.09,WSW,254,3.6,6.3,17,0.00,,,0.00,VWS V13.01,2013-02-09 01:17:00,
2013-02-08 19:22:00,20.3,-17.5,29.09,West,274,7.6,8.1,17,0.00,,,0.00,VWS V13.01,2013-02-09 01:22:00,
2013-02-08 19:27:00,20.3,-17.5,29.09,WNW,287,4.0,4.9,17,0.00,,,0.00,VWS V13.01,2013-02-09 01:27:00,
2013-02-08 19:32:00,20.5,-17.4,29.09,West,273,4.9,6.3,17,0.00,,,0.00,VWS V13.01,2013-02-09 01:32:00,
2013-02-08 19:37:00,20.7,-17.2,29.09,West,265,8.1,8.1,17,0.00,,,0.00,VWS V13.01,2013-02-09 01:37:00,
2013-02-08 19:42:00,20.8,-17.1,29.09,West,278,5.8,8.1,17,0.00,,,0.00,VWS V13.01,2013-02-09 01:42:00,
2013-02-08 19:47:00,20.8,-17.1,29.09,West,280,6.3,8.3,17,0.00,,,0.00,VWS V13.01,2013-02-09 01:47:00,
2013-02-08 19:52:00,20.8,-17.1,29.09,WSW,250,6.3,7.2,17,0.00,,,0.00,VWS V13.01,2013-02-09 01:52:00,
2013-02-08 19:57:00,21.0,-16.9,29.09,West,280,4.9,5.8,17,0.00,,,0.00,VWS V13.01,2013-02-09 01:57:00,
2013-02-08 20:02:00,21.0,-16.9,29.09,WNW,297,6.3,6.3,17,0.00,,,0.00,VWS V13.01,2013-02-09 02:02:00,
2013-02-08 20:07:00,21.2,-16.8,29.09,WSW,249,8.1,8.1,17,0.00,,,0.00,VWS V13.01,2013-02-09 02:07:00,
2013-02-08 20:12:00,21.2,-16.8,29.06,West,267,5.8,6.3,17,0.00,,,0.00,VWS V13.01,2013-02-09 02:12:00,
2013-02-08 20:17:00,21.2,-16.8,29.06,West,278,6.3,7.6,17,0.00,,,0.00,VWS V13.01,2013-02-09 02:17:00,
2013-02-08 20:22:00,21.2,-16.8,29.06,West,262,5.8,5.8,17,0.00,,,0.00,VWS V13.01,2013-02-09 02:22:00,
2013-02-08 20:27:00,21.4,-16.6,29.06,WNW,298,8.7,8.7,17,0.00,,,0.00,VWS V13.01,2013-02-09 02:27:00,
2013-02-08 20:32:00,21.4,-16.6,29.06,WNW,291,4.9,5.8,17,0.00,,,0.00,VWS V13.01,2013-02-09 02:32:00,
2013-02-08 20:37:00,21.6,-16.5,29.06,WSW,240,3.6,3.6,17,0.00,,,0.00,VWS V13.01,2013-02-09 02:37:00,
2013-02-08 20:42:00,21.6,-16.5,29.06,WNW,282,5.4,5.4,17,0.00,,,0.00,VWS V13.01,2013-02-09 02:42:00,
2013-02-08 20:47:00,21.7,-16.4,29.06,West,281,5.8,7.6,17,0.00,,,0.00,VWS V13.01,2013-02-09 02:47:00,
2013-02-08 20:52:00,21.9,-16.2,29.06,WNW,283,6.3,7.6,17,0.00,,,0.00,VWS V13.01,2013-02-09 02:52:00,
2013-02-08 20:57:00,21.9,-16.2,29.06,WNW,288,7.6,8.1,17,0.00,,,0.00,VWS V13.01,2013-02-09 02:57:00,
2013-02-08 21:02:00,22.1,-16.0,29.06,WNW,291,5.8,8.3,17,0.00,,,0.00,VWS V13.01,2013-02-09 03:02:00,
2013-02-08 21:07:00,22.1,-16.0,29.06,NW,311,5.8,5.8,17,0.00,,,0.00,VWS V13.01,2013-02-09 03:07:00,
2013-02-08 21:12:00,22.3,-15.9,29.06,WNW,302,6.3,6.3,17,0.00,,,0.00,VWS V13.01,2013-02-09 03:12:00,
2013-02-08 21:17:00,22.5,-15.8,29.06,WNW,292,5.8,5.8,17,0.00,,,0.00,VWS V13.01,2013-02-09 03:17:00,
2013-02-08 21:22:00,22.6,-15.6,29.06,WNW,296,8.7,8.7,17,0.00,,,0.00,VWS V13.01,2013-02-09 03:22:00,
2013-02-08 21:27:00,22.6,-15.6,29.06,NW,304,8.7,8.7,17,0.00,,,0.00,VWS V13.01,2013-02-09 03:27:00,
2013-02-08 21:32:00,22.8,-15.4,29.06,WSW,249,7.6,7.6,17,0.00,,,0.00,VWS V13.01,2013-02-09 03:32:00,
2013-02-08 21:37:00,22.8,-15.4,29.06,WNW,296,6.3,6.7,17,0.00,,,0.00,VWS V13.01,2013-02-09 03:37:00,
2013-02-08 21:42:00,22.8,-15.4,29.06,WNW,303,5.8,7.6,17,0.00,,,0.00,VWS V13.01,2013-02-09 03:42:00,
2013-02-08 21:47:00,23.0,-15.3,29.06,NW,310,6.3,6.3,17,0.00,,,0.00,VWS V13.01,2013-02-09 03:47:00,
2013-02-08 21:52:00,23.0,-15.3,29.06,WNW,294,5.8,9.6,17,0.00,,,0.00,VWS V13.01,2013-02-09 03:52:00,
2013-02-08 21:57:00,23.0,-15.3,29.06,NW,311,8.1,8.1,17,0.00,,,0.00,VWS V13.01,2013-02-09 03:57:00,
2013-02-08 22:02:00,23.0,-15.3,29.06,NW,305,6.7,6.7,17,0.00,,,0.00,VWS V13.01,2013-02-09 04:02:00,
2013-02-08 22:07:00,23.2,-15.2,29.06,West,270,8.1,8.1,17,0.00,,,0.00,VWS V13.01,2013-02-09 04:07:00,
2013-02-08 22:12:00,23.2,-15.2,29.06,WNW,295,7.6,7.6,17,0.00,,,0.00,VWS V13.01,2013-02-09 04:12:00,
2013-02-08 22:17:00,23.2,-15.2,29.06,West,281,5.8,7.6,17,0.00,,,0.00,VWS V13.01,2013-02-09 04:17:00,
2013-02-08 22:22:00,23.2,-15.2,29.06,WNW,295,5.8,5.8,17,0.00,,,0.00,VWS V13.01,2013-02-09 04:22:00,
2013-02-08 22:27:00,23.5,-14.9,29.06,WNW,297,7.6,7.6,17,0.00,,,0.00,VWS V13.01,2013-02-09 04:27:00,
2013-02-08 22:32:00,23.5,-14.9,29.06,NW,305,8.1,8.3,17,0.00,,,0.00,VWS V13.01,2013-02-09 04:32:00,
2013-02-08 22:37:00,23.5,-14.9,29.06,West,276,8.7,8.7,17,0.00,,,0.00,VWS V13.01,2013-02-09 04:37:00,
2013-02-08 22:42:00,23.5,-14.9,29.03,WNW,298,5.4,8.7,17,0.00,,,0.00,VWS V13.01,2013-02-09 04:42:00,
2013-02-08 22:47:00,23.7,-14.7,29.03,WNW,292,5.4,8.7,17,0.00,,,0.00,VWS V13.01,2013-02-09 04:47:00,
2013-02-08 22:52:00,23.7,-14.7,29.03,WNW,299,5.4,5.8,17,0.00,,,0.00,VWS V13.01,2013-02-09 04:52:00,
2013-02-08 22:57:00,23.7,-14.7,29.03,WNW,282,9.2,9.2,17,0.00,,,0.00,VWS V13.01,2013-02-09 04:57:00,
2013-02-08 23:00:00,23.7,-14.7,29.03,NW,307,7.6,7.6,17,0.00,,,0.00,VWS V13.01,2013-02-09 05:00:00,
2013-02-08 23:05:00,23.9,-14.6,29.03,WNW,294,7.6,8.3,17,0.00,,,0.00,VWS V13.01,2013-02-09 05:05:00,
2013-02-08 23:10:00,23.9,-14.6,29.03,WNW,298,6.3,8.3,17,0.00,,,0.00,VWS V13.01,2013-02-09 05:10:00,
2013-02-08 23:15:00,23.9,-14.6,29.03,NNW,330,8.3,8.3,17,0.00,,,0.00,VWS V13.01,2013-02-09 05:15:00,
2013-02-08 23:20:00,24.1,-14.4,29.03,West,275,8.7,8.7,17,0.00,,,0.00,VWS V13.01,2013-02-09 05:20:00,
2013-02-08 23:25:00,24.1,-14.4,29.03,WNW,302,8.1,8.1,17,0.00,,,0.00,VWS V13.01,2013-02-09 05:25:00,
2013-02-08 23:30:00,24.3,-14.3,29.03,WNW,296,6.3,8.7,17,0.00,,,0.00,VWS V13.01,2013-02-09 05:30:00,
2013-02-08 23:35:00,24.1,-14.4,29.03,NW,313,5.4,8.1,17,0.00,,,0.00,VWS V13.01,2013-02-09 05:35:00,
2013-02-08 23:40:00,24.3,-14.3,29.03,NNW,332,8.7,10.1,17,0.00,,,0.00,VWS V13.01,2013-02-09 05:40:00,
2013-02-08 23:45:00,24.6,-14.0,29.03,NW,326,13.2,13.2,17,0.00,,,0.00,VWS V13.01,2013-02-09 05:45:00,
2013-02-08 23:50:00,24.4,-14.1,29.03,NW,315,8.1,10.1,17,0.00,,,0.00,VWS V13.01,2013-02-09 05:50:00,
2013-02-08 23:55:00,24.4,-14.1,29.03,NW,314,6.3,8.3,17,0.00,,,0.00,VWS V13.01,2013-02-09 05:55:00,